Location: Grums
(59.3529°N, 13.1129°E)
Time: 00:03:22
(UTC+01:00)

SEEDS - Pass Details

Date: 03 December 2021
Orbit: 584 x 600 km, 97.6° (Epoch: 27 January)

Event Time Altitude Azimuth Distance (km) Brightness Sun altitude
Rises 16:06:10 0° 184° (S) 2,824 ? -6.0°
Reaches altitude 10° 16:08:26 10° 192° (SSW) 1,925 ? -6.2°
Maximum altitude 16:12:23 40° 263° (W) 879 ? -6.7°
Drops below altitude 10° 16:16:20 10° 333° (NNW) 1,929 ? -7.1°
Sets 16:18:37 0° 341° (NNW) 2,833 ? -7.3°
